{"data":{"norad_id":81819,"intl_designator":"","name":"UNKNOWN","alt_names":[],"object_type":"UNKNOWN","status":"UNKNOWN","operator":null,"country":null,"launch_date":null,"launch_site_code":null,"launch_vehicle":null,"mission":null,"orbit_class":"UNKNOWN","rcs_meters":null,"size_class":null,"mass_kg":null,"dimensions":null,"purposes":[],"wikipedia_slug":null,"has_3d_model":false,"image_url":null,"decayed_at":null,"tle_current":{"epoch":"2026-09-17T05:53:45.294432Z","epoch_age_seconds":295714,"freshness":"STALE","line1":"1 81819U          26260.24566313  .00000491  00000+0  36223-2 0  9994","line2":"2 81819 102.1807   6.4402 0032991 310.5852  49.2345 12.48021875582754","mean_motion":12.48021875,"eccentricity":0.0032991,"inclination_deg":102.1807,"raan_deg":6.4402,"arg_perigee_deg":310.5852,"mean_anomaly_deg":49.2345,"bstar":0.0036223,"rev_number":58275,"period_min":115.38259295335,"perigee_km":1446.8788637093,"apogee_km":1498.6807830934,"semimajor_km":7850.9168234014,"source":"CELESTRAK","updated_at":"2026-09-20T09:00:32.395850Z"}}}